Flag for Netherlands Weather past 2 weeks in Utrecht, Netherlands

48 °F

Passing clouds.

Feels Like: 40 °F
Forecast: 45 / 55 °F
Wind: 29 mph from West

Location: Amsterdam Schiphol Airport

Current Time: Nov 30, 2015 at 2:21:41 AM

Latest Report: Nov 30, 2015 at 1:55 AM

Visibility: N/A

Pressure: 29.86 "Hg

Humidity: 66%

Dew point: 37 °F

Location of UtrechtLocation

Historic Weather in Utrecht — Graph


Utrecht temperature yesterday

Maximum temperature yesterday: 54 °F (at 2:25 PM)
Minimum temperature yesterday: 46 °F (at 12:25 AM)
Average temperature yesterday: 51 °F

Past Weeks' High & Low Weather Summary

High59 °F (Nov 15, 5:25 AM)100% (Nov 17, 3:25 AM)30.21 "Hg (Nov 17, 3:25 AM)
Low30 °F (Nov 23, 5:25 AM)62% (Nov 29, 10:55 PM)29.30 "Hg (Nov 21, 6:55 AM)
Average47 °F85%29.78 "Hg
* Reported Nov 15 12:25 AM — Nov 30 12:55 AM, Utrecht, Weather by CustomWeather, © 2015

Note: Actual official high and low records may vary slightly from our data, if they occured in-between our weather recording intervals... More about our weather records


Utrecht weather history for previous 24 hours

Time TempWeatherWind HumidityBarometerVisibility
12:55 AM
Mon, Nov 30
48 °FPassing clouds.32 mph66%29.83 "HgN/A
11:25 PM
Sun, Nov 29
50 °FPassing clouds.29 mph62%29.77 "HgN/A
10:55 PM50 °FPassing clouds.37 mph62%29.74 "HgN/A
10:25 PM52 °FPassing clouds.25 mph72%29.74 "HgN/A
9:55 PM52 °FSprinkles. Passing clouds.30 mph72%29.71 "HgN/A
9:25 PM52 °FPassing clouds.29 mph77%29.68 "HgN/A
8:55 PM52 °FPassing clouds.31 mph77%29.68 "HgN/A
8:25 PM52 °FSprinkles. Passing clouds.28 mph88%29.65 "Hg6 mi
7:55 PM52 °FRain showers. Passing clouds.31 mph88%29.65 "Hg4 mi
7:25 PM54 °FRain showers. Partly cloudy.35 mph88%29.62 "Hg3 mi
6:55 PM54 °FPartly cloudy.36 mph88%29.59 "Hg4 mi
6:25 PM54 °FPartly cloudy.44 mph82%29.59 "Hg5 mi
5:55 PM54 °FPartly cloudy.37 mph82%29.59 "Hg6 mi
5:25 PM54 °FPartly cloudy.33 mph77%29.62 "HgN/A
4:55 PM54 °FPassing clouds.37 mph77%29.62 "Hg6 mi
4:25 PM54 °FScattered clouds.36 mph82%29.62 "Hg5 mi
3:55 PM54 °FBroken clouds.35 mph82%29.62 "Hg5 mi
3:25 PM54 °FPartly sunny.32 mph77%29.62 "Hg6 mi
2:55 PM54 °FBroken clouds.29 mph77%29.62 "HgN/A
2:25 PM54 °FPassing clouds.26 mph77%29.62 "HgN/A
1:55 PM52 °FBroken clouds.25 mph88%29.62 "HgN/A
1:25 PM52 °FLight rain. More clouds than sun.24 mph88%29.65 "Hg6 mi
12:55 PM50 °FRain. More clouds than sun.24 mph94%29.65 "Hg4 mi
12:25 PM50 °FLight rain. Scattered clouds.22 mph94%29.68 "Hg4 mi
11:55 AM50 °FLight rain. Passing clouds.25 mph88%29.68 "Hg4 mi
11:25 AM52 °FPassing clouds.21 mph82%29.68 "HgN/A
10:55 AM52 °FPassing clouds.23 mph82%29.71 "HgN/A
10:25 AM52 °FPassing clouds.22 mph77%29.71 "HgN/A
9:55 AM52 °FPassing clouds.22 mph77%29.68 "HgN/A
9:25 AM50 °FPassing clouds.23 mph82%29.68 "HgN/A
8:55 AM50 °FScattered clouds.23 mph82%29.68 "HgN/A
7:55 AM46 °FSprinkles. Passing clouds.12 mph93%29.68 "HgN/A
7:25 AM46 °FRain showers. Partly cloudy.21 mph87%29.68 "Hg4 mi
6:55 AM50 °FRain showers. Partly cloudy.18 mph88%29.65 "HgN/A
5:55 AM50 °FPassing clouds.21 mph82%29.65 "HgN/A
5:25 AM50 °FPassing clouds.21 mph82%29.65 "HgN/A
4:55 AM50 °FPassing clouds.23 mph82%29.65 "HgN/A
4:25 AM50 °FPassing clouds.21 mph82%29.65 "HgN/A
3:55 AM48 °FScattered showers. Partly cloudy.21 mph82%29.65 "HgN/A
3:25 AM48 °FSprinkles. Passing clouds.29 mph82%29.65 "HgN/A
2:55 AM50 °FPassing clouds.22 mph82%29.65 "HgN/A
2:25 AM50 °FSprinkles. Passing clouds.15 mph88%29.65 "HgN/A
Weather by CustomWeather, © 2015

See weather overviewHow to use our weather pages